Location: Baia Mare
(47.6567°N, 23.5850°E)
Time: 00:31:46
(UTC+03:00)

ISS - Pass Details

Date: 15 July 2018
Orbit: 402 x 408 km, 51.6° (Epoch: 16 July)

Event Time Altitude Azimuth Distance (km) Brightness Sun altitude
Exits shadow 01:17:15 19° 80° (E) 1,031 -1.7 -20.7°
Drops below altitude 10° 01:18:23 10° 73° (ENE) 1,469 -0.9 -20.7°
Sets 01:20:31 0° 68° (ENE) 2,333 0.3 -20.7°
